Simultaneous Nadir Overpasses (SNOs) Predictions

Prediction of SNOs between GOES-15 and NPP Satellite Orbit:

Table of predicted SNOs for the next 14.0 days since TLE Epoch: 2/17/2017
Index Date Time (GOES-15) GOES-15 Lat,Lon NPP Lat,Lon Distance(km) Time Diff (sec)
1 02/18/2017 22:36:43 0.03,-135.36 -0.47,-137.53 247.72 80
2 02/19/2017 22:15:17 0.03,-135.35 0.53,-132.99 267.51 80
3 02/21/2017 10:37:04 -0.02,-135.32 0.66,-138.26 335.76 80
4 02/22/2017 10:20:58 -0.02,-135.30 -0.34,-133.72 179.24 80
5 02/23/2017 22:42:54 0.01,-135.28 -0.80,-139.03 426.83 80
6 02/24/2017 22:21:29 0.01,-135.26 0.20,-134.50 87.63 80
7 02/27/2017 10:24:30 -0.01,-135.19 -0.02,-135.22 3.28 80
8 03/01/2017 22:30:20 0.01,-135.14 -0.18,-135.98 96.45 80
9 03/02/2017 22:08:54 0.01,-135.11 0.82,-131.45 416.98 80




NCC Satellite Simultaneous Nadir Overpasses (SNOs) Prediction Service
